[[{"header":{"parameterUnit":"m.s-1","parameterCategory":1,"la1":30.2991,"la2":30.254,"lo1":-89.0895,"lo2":-89.0444,"dy":0.0017,"dx":0.0017,"nx":28,"ny":28,"refTime":"2024-12-01T03:00:00:Z","depth":0,"parameterNumber":2,"parameterNumberName":"U-component_of_WINDS"},"data":[0,0,0,0,0,0,0,0,0,0,0,0,0,0,0,0,0,0,0,0,0,0,0,0,0,0,0,0,0,0,0,0,0,0,0,0,0,0,0,0,0,0,0,0,0,0,0,0,0,0,0,0,0,0,0,0,0,0,-2.9316,-2.9317,0,-2.9385,-2.9386,-2.9386,-2.9265,-2.9261,-2.9257,-2.9253,-2.9326,-2.9332,-2.9337,0,0,0,0,0,0,0,0,0,0,0,0,0,-2.908,-2.9085,-2.9316,-2.9317,-2.9317,-2.9385,-2.9386,-2.9387,-2.9266,-2.9261,-2.9256,-2.9251,-2.9324,-2.9331,-2.9338,0,0,0,0,0,0,0,0,0,0,0,0,0,-2.9169,-2.9086,-2.9316,-2.9265,-2.9261,-2.9384,-2.9386,-2.9387,-2.9267,-2.9261,-2.9255,-2.9249,-2.9322,-2.933,-2.9339,-2.9515,0,0,-2.9365,-2.9369,0,0,0,0,0,0,0,0,-2.9164,-2.9178,-2.9272,-2.9269,-2.9265,-2.931,-2.9329,-2.943,-2.9268,-2.9265,-2.9253,-2.9246,-2.9326,-2.9334,-2.936,-2.9518,-2.9521,-2.9366,-2.9371,-2.9375,-2.9377,0,0,0,0,0,0,0,-2.9158,-2.9174,-2.9343,-2.9273,-2.9269,-2.9239,-2.9245,-2.9348,-2.9329,-2.9265,-2.9256,-2.9266,-2.9323,-2.9352,-2.9361,-2.9522,-2.9366,-2.9373,-2.9379,-2.9382,-2.9827,-2.9833,0,0,0,0,0,0,-2.9158,-2.917,-2.9341,-2.9345,-2.9198,-2.9249,-2.9255,-2.9302,-2.9327,-2.9325,-2.9271,-2.926,-2.934,-2.9351,-2.9363,-2.957,-2.9375,-2.9383,-2.9388,-2.982,-2.9828,-2.9835,0,0,0,0,0,0,-2.9153,-2.9174,-2.9338,-2.9255,-2.9274,-2.9259,-2.9312,-2.9306,-2.9336,-2.9332,-2.9328,-2.9305,-2.9336,-2.9351,-2.9477,-2.9571,-2.9387,-2.9395,-2.9812,-2.9823,-2.9832,-2.9987,0,0,0,0,0,0,-2.9147,-2.9174,-2.924,-2.9258,-2.9279,-2.9452,-2.9318,-2.9312,-2.9351,-2.9337,-2.9363,-2.9361,-2.9332,-2.9465,-2.9486,-2.958,-2.9401,-2.9804,-2.9817,-2.9829,-2.9973,-3.0001,-3.0024,0,0,0,0,0,-2.9139,-2.9282,-2.9244,-2.9266,-2.9362,-2.9457,-2.9469,-2.9433,-2.9359,-2.9426,-2.9423,-2.936,-2.9557,-2.9479,-2.9502,-2.9599,-2.9798,-2.9813,-2.9828,-2.9962,-2.9995,-3.0024,0,0,0,0,0,0,-2.9277,-2.9283,-2.9242,-2.9394,-2.9426,-2.9437,-2.952,-2.947,-2.9524,-2.9509,-2.9462,-2.9469,-2.9605,-2.9614,-2.9527,-2.977,-2.9665,-2.9685,-2.9759,-2.9791,-2.9816,-2.9811,-2.9408,0,0,0,0,0,-2.9325,-2.9402,-2.9403,-2.9538,-2.9556,-2.9536,-2.9576,-2.9545,-2.9576,-2.9589,-2.9596,-2.9629,-2.9698,-2.9745,-2.9808,-2.9973,-2.9977,-3.0051,-3.0077,-3.0098,-3.0116,-3.0203,-3.0236,-2.9884,-2.9884,-2.9884,0,0,-2.9426,-2.9438,-2.949,-2.9566,-2.9587,-2.9667,-2.9548,-2.9639,-2.9698,-2.9603,-2.9723,-2.9729,-2.9763,-2.9909,-2.9974,-2.9921,-3.0214,-3.0117,-3.0134,-3.0141,-3.0222,-3.0255,-3.0285,-2.9894,-2.9893,-2.9891,0,0,-2.965,-2.9667,-2.9781,-2.9804,-2.9837,-2.9822,-2.9849,-2.9867,-2.9867,-2.9986,-2.9917,-2.9986,-3.0107,-3.0133,-3.0163,-3.0395,-3.0339,-3.0417,-3.0551,-3.0637,-3.0664,-3.0689,-3.0771,-3.0802,-3.0435,-3.0436,-3.0436,0,-2.9771,-2.9889,-2.9846,-2.9941,-2.9976,-2.9893,-3.0007,-3.0032,-3.0084,-3.0111,-3.005,-3.0198,-3.0216,-3.0366,-3.0423,-3.045,-3.0479,-3.0415,-3.0664,-3.0688,-3.071,-3.0788,-3.0819,-3.0445,-3.0444,-3.0443,-3.0442,0,-3.0036,-3.0119,-3.0207,-3.0259,-3.0303,-3.0408,-3.038,-3.0431,-3.0395,-3.0387,-3.0509,-3.0526,-3.0591,-3.0624,-3.0591,-3.0771,-3.0737,-3.0671,-3.0565,-3.0753,-3.0826,-3.0856,-3.0458,-3.0455,-3.0452,-3.045,0,0,-3.0351,-3.0376,-3.0409,-3.0431,-3.046,-3.0523,-3.0624,-3.0686,-3.073,-3.0769,-3.0852,-3.0955,-3.0893,-3.0927,-3.0896,-3.0971,-3.1153,-3.0895,-3.0895,-3.0943,-3.1351,-3.1401,-3.1436,-3.1115,-3.1121,-3.1125,-3.1348,0,-3.0574,-3.0746,-3.0709,-3.0879,-3.0955,-3.0875,-3.0963,-3.099,-3.0985,-3.1048,-3.1042,-3.1115,-3.1029,-3.1049,-3.1119,-3.1116,-3.1234,-3.1099,-3.1192,-3.1196,-3.1187,-3.1474,-3.1527,-3.1737,-3.1376,-3.1381,-3.1385,0,-3.0857,-3.0905,-3.1082,-3.1098,-3.1128,-3.1208,-3.1261,-3.1323,-3.1352,-3.1342,-3.1379,-3.1333,-3.1432,-3.1324,-3.1459,-3.1368,-3.1404,-3.1408,-3.1415,-3.1423,-3.1303,-3.149,-3.1803,-3.1834,-3.1429,-3.1426,-3.1422,0,-3.1069,-3.1178,-3.1298,-3.1319,-3.134,-3.1398,-3.1409,-3.1432,-3.1471,-3.1518,-3.1543,-3.1602,-3.1634,-3.168,-3.165,-3.1574,-3.1791,-3.168,-3.1786,-3.1787,-3.1836,-3.1834,-3.216,-3.1859,-3.1858,-3.1858,-3.1857,0,-3.1322,-3.1434,-3.1393,-3.1467,-3.1589,-3.1545,-3.1667,-3.1669,-3.169,-3.1763,-3.1697,-3.1767,-3.1724,-3.179,-3.1767,-3.1883,-3.1898,-3.1893,-3.1886,-3.1899,-3.19,-3.1922,-3.1907,-3.1866,-3.1864,-3.1863,-3.1861,0,-3.1581,-3.1558,-3.1683,-3.1692,-3.1697,-3.1787,-3.1794,-3.1863,-3.1851,-3.1944,-3.1963,-3.1946,-3.202,-3.1995,-3.2075,-3.2059,-3.2206,-3.218,-3.2197,-3.219,-3.2297,-3.2288,-3.2649,-3.2694,-3.2365,-3.2368,-3.2371,0,-3.1744,-3.1828,-3.1845,-3.1889,-3.1905,-3.1976,-3.2015,-3.1975,-3.2019,-3.2057,-3.2121,-3.2189,-3.2241,-3.2363,-3.2358,-3.2419,-3.2393,-3.2516,-3.2402,-3.2413,-3.2395,-3.2391,-3.2398,-3.2539,-3.2543,-3.2546,-3.2548,0,-3.2036,-3.202,-3.2079,-3.2135,-3.2183,-3.2225,-3.2261,-3.2301,-3.2262,-3.2314,-3.2389,-3.243,-3.251,-3.2578,-3.2632,-3.2644,-3.2591,-3.2584,-3.2612,-3.2626,-3.2632,-3.263,-3.2259,-3.2576,-3.2573,-3.2571,-3.257,-3.2569,-3.2252,-3.2322,-3.2345,-3.2413,-3.2435,-3.247,-3.2534,-3.253,-3.2591,-3.2653,-3.2625,-3.2712,-3.2737,-3.2803,-3.2822,-3.2889,-3.2842,-3.2882,-3.2892,-3.2903,-3.2916,-3.2621,-3.2899,-3.2898,-3.2897,-3.2896,-3.2896,0,-3.254,-3.2551,-3.2613,-3.2665,-3.2718,-3.2662,-3.2698,-3.2746,-3.2823,-3.2851,-3.2903,-3.2988,-3.3054,-3.3053,-3.3113,-3.3167,-3.3144,-3.3184,-3.318,-3.3183,-3.2955,-3.2925,-3.3202,-3.3202,-3.3202,-3.3202,-3.3202,-3.3201,-3.2697,-3.2812,-3.2799,-3.2925,-3.2934,-3.3017,-3.3043,-3.3074,-3.3096,-3.3194,-3.3247,-3.3246,-3.3262,-3.3323,-3.338,-3.3378,-3.3404,-3.3454,-3.3443,-3.323,-3.32,-3.3171,-3.3142,-3.346,-3.346,-3.3665,-3.3667,-3.3668]},{"header":{"parameterUnit":"m.s-1","parameterCategory":1,"la1":30.2991,"la2":30.254,"lo1":-89.0895,"lo2":-89.0444,"dy":0.0017,"dx":0.0017,"nx":28,"ny":28,"refTime":"2024-12-01T03:00:00:Z","depth":0,"parameterNumber":3,"parameterNumberName":"V-component_of_WINDS"},"data":[0,0,0,0,0,0,0,0,0,0,0,0,0,0,0,0,0,0,0,0,0,0,0,0,0,0,0,0,0,0,0,0,0,0,0,0,0,0,0,0,0,0,0,0,0,0,0,0,0,0,0,0,0,0,0,0,0,0,-3.4947,-3.4948,0,-3.5011,-3.5012,-3.5013,-3.4971,-3.4969,-3.4967,-3.4965,-3.5027,-3.503,-3.5034,0,0,0,0,0,0,0,0,0,0,0,0,0,-3.4785,-3.4788,-3.4947,-3.4948,-3.4949,-3.5011,-3.5012,-3.5013,-3.4971,-3.4969,-3.4967,-3.4964,-3.5026,-3.503,-3.5034,0,0,0,0,0,0,0,0,0,0,0,0,0,-3.4853,-3.4789,-3.4947,-3.4936,-3.4935,-3.5011,-3.5012,-3.5013,-3.4972,-3.4969,-3.4966,-3.4963,-3.5025,-3.503,-3.5035,-3.5124,0,0,-3.505,-3.5053,0,0,0,0,0,0,0,0,-3.4849,-3.4859,-3.4937,-3.4937,-3.4936,-3.498,-3.4977,-3.505,-3.4972,-3.4958,-3.4965,-3.4962,-3.5014,-3.5019,-3.5038,-3.5127,-3.5129,-3.5051,-3.5054,-3.5056,-3.5058,0,0,0,0,0,0,0,-3.4844,-3.4856,-3.4972,-3.4938,-3.4938,-3.4926,-3.4932,-3.4991,-3.5001,-3.4959,-3.4956,-3.4964,-3.5013,-3.5033,-3.5039,-3.513,-3.5051,-3.5055,-3.5058,-3.506,-3.5294,-3.5297,0,0,0,0,0,0,-3.4841,-3.4852,-3.497,-3.4974,-3.4885,-3.4931,-3.4938,-3.4969,-3.5,-3.5002,-3.4967,-3.4962,-3.5025,-3.5033,-3.5041,-3.5146,-3.5056,-3.5061,-3.5064,-3.5291,-3.5294,-3.5298,0,0,0,0,0,0,-3.4838,-3.4852,-3.4968,-3.4913,-3.4926,-3.4937,-3.4972,-3.4972,-3.4992,-3.5006,-3.5007,-3.4986,-3.5023,-3.5033,-3.5103,-3.5147,-3.5063,-3.5068,-3.5287,-3.5292,-3.5296,-3.5358,0,0,0,0,0,0,-3.4833,-3.4851,-3.4886,-3.4914,-3.493,-3.5031,-3.4975,-3.4975,-3.5001,-3.4996,-3.5024,-3.5026,-3.5022,-3.5096,-3.5108,-3.5153,-3.5072,-3.5283,-3.5289,-3.5295,-3.5352,-3.5364,-3.5374,0,0,0,0,0,-3.4828,-3.4901,-3.4888,-3.4903,-3.4974,-3.5034,-3.5043,-3.5037,-3.5005,-3.5039,-3.5048,-3.5025,-3.5141,-3.5103,-3.5117,-3.5164,-3.528,-3.5287,-3.5294,-3.5347,-3.5361,-3.5374,0,0,0,0,0,0,-3.4877,-3.4904,-3.4891,-3.4975,-3.5003,-3.5027,-3.507,-3.5054,-3.509,-3.5083,-3.5074,-3.5081,-3.5154,-3.5166,-3.5124,-3.5251,-3.5205,-3.5215,-3.524,-3.5254,-3.5266,-3.5261,-3.5076,0,0,0,0,0,-3.4898,-3.4946,-3.4966,-3.5039,-3.5053,-3.506,-3.5085,-3.5079,-3.5106,-3.5117,-3.5132,-3.5158,-3.52,-3.5228,-3.5268,-3.5353,-3.5358,-3.5392,-3.5403,-3.5413,-3.5421,-3.5465,-3.548,-3.5321,-3.5321,-3.532,0,0,-3.4942,-3.4962,-3.4993,-3.5049,-3.507,-3.5117,-3.5069,-3.5122,-3.5157,-3.5125,-3.5192,-3.5203,-3.5232,-3.531,-3.5345,-3.5322,-3.5466,-3.5422,-3.5429,-3.5432,-3.5474,-3.5489,-3.5503,-3.5325,-3.5325,-3.5324,0,0,-3.5045,-3.5066,-3.5128,-3.515,-3.5182,-3.5185,-3.52,-3.5227,-3.5233,-3.53,-3.5277,-3.5317,-3.539,-3.5411,-3.5432,-3.5542,-3.5521,-3.5555,-3.5613,-3.5657,-3.5669,-3.568,-3.5718,-3.5732,-3.5564,-3.5564,-3.5564,0,-3.5095,-3.5167,-3.5162,-3.5217,-3.5241,-3.5215,-3.5277,-3.5297,-3.534,-3.5357,-3.5332,-3.5422,-3.544,-3.5521,-3.5548,-3.5566,-3.5581,-3.5551,-3.5668,-3.5679,-3.5689,-3.5725,-3.574,-3.5568,-3.5567,-3.5567,-3.5566,0,-3.5226,-3.5276,-3.5322,-3.5365,-3.5395,-3.5453,-3.5454,-3.5485,-3.5476,-3.5482,-3.5549,-3.5569,-3.5612,-3.5631,-3.5623,-3.5711,-3.5696,-3.567,-3.5623,-3.5709,-3.5742,-3.5756,-3.5573,-3.5572,-3.5571,-3.557,0,0,-3.5362,-3.5401,-3.5418,-3.5436,-3.5469,-3.5507,-3.5563,-3.5606,-3.5631,-3.5661,-3.5707,-3.5769,-3.5744,-3.5767,-3.5761,-3.5799,-3.5883,-3.5768,-3.5768,-3.5787,-3.5979,-3.5998,-3.6014,-3.587,-3.5872,-3.5875,-3.5976,0,-3.5466,-3.5565,-3.5561,-3.5653,-3.5698,-3.5674,-3.5722,-3.5746,-3.5753,-3.5791,-3.5798,-3.5841,-3.5807,-3.582,-3.5857,-3.5865,-3.5921,-3.5858,-3.591,-3.5912,-3.5902,-3.6032,-3.6052,-3.6147,-3.599,-3.5992,-3.5994,0,-3.5601,-3.5636,-3.5732,-3.5757,-3.5776,-3.582,-3.5858,-3.5895,-3.5922,-3.5924,-3.5949,-3.5936,-3.5991,-3.5944,-3.6018,-3.5975,-3.5996,-3.6003,-3.6006,-3.601,-3.5957,-3.6038,-3.6178,-3.6191,-3.6014,-3.6013,-3.6011,0,-3.5689,-3.576,-3.5827,-3.5843,-3.5875,-3.5905,-3.592,-3.5943,-3.5969,-3.6002,-3.6017,-3.6056,-3.6077,-3.6106,-3.6103,-3.6069,-3.6177,-3.6131,-3.6179,-3.6179,-3.6202,-3.62,-3.6346,-3.6218,-3.6218,-3.6217,-3.6217,0,-3.5804,-3.5864,-3.5866,-3.5907,-3.5972,-3.5967,-3.6031,-3.6041,-3.6063,-3.6104,-3.6085,-3.6123,-3.6118,-3.6156,-3.6154,-3.6214,-3.6224,-3.6226,-3.6224,-3.6227,-3.6227,-3.624,-3.6232,-3.6221,-3.622,-3.622,-3.6219,0,-3.5913,-3.5918,-3.5988,-3.6012,-3.6019,-3.6066,-3.6085,-3.6123,-3.6128,-3.618,-3.6192,-3.6199,-3.6243,-3.6243,-3.6293,-3.6291,-3.6365,-3.6357,-3.6356,-3.6354,-3.6402,-3.6397,-3.656,-3.658,-3.6441,-3.6442,-3.6443,0,-3.5986,-3.6032,-3.606,-3.6087,-3.6103,-3.6146,-3.6172,-3.6168,-3.6195,-3.6228,-3.6261,-3.6304,-3.6337,-3.6408,-3.6417,-3.6455,-3.6446,-3.6501,-3.6451,-3.6452,-3.6445,-3.6442,-3.6445,-3.651,-3.6511,-3.6513,-3.6514,0,-3.6115,-3.6115,-3.6153,-3.6193,-3.6224,-3.6255,-3.6283,-3.6305,-3.6304,-3.6335,-3.6381,-3.6407,-3.6458,-3.6499,-3.6536,-3.6548,-3.653,-3.6529,-3.6542,-3.6545,-3.6542,-3.6542,-3.6381,-3.6525,-3.6524,-3.6523,-3.6523,-3.6522,-3.6207,-3.6245,-3.6271,-3.6315,-3.6335,-3.6362,-3.6398,-3.6408,-3.6446,-3.6487,-3.6482,-3.6532,-3.6556,-3.6603,-3.6619,-3.6656,-3.6637,-3.6656,-3.666,-3.6665,-3.6669,-3.6537,-3.6663,-3.6663,-3.6662,-3.6662,-3.6662,0,-3.6333,-3.6349,-3.6389,-3.6429,-3.6462,-3.6444,-3.6474,-3.6502,-3.6547,-3.6571,-3.6605,-3.6656,-3.6696,-3.6707,-3.6746,-3.6773,-3.6766,-3.6783,-3.678,-3.6783,-3.6685,-3.667,-3.6789,-3.6789,-3.6788,-3.6788,-3.6788,-3.6788,-3.6403,-3.6466,-3.6469,-3.6542,-3.6556,-3.6606,-3.6624,-3.6648,-3.6667,-3.6725,-3.6758,-3.6766,-3.6785,-3.6824,-3.6859,-3.6862,-3.6876,-3.6896,-3.6895,-3.6803,-3.679,-3.6778,-3.6763,-3.69,-3.69,-3.699,-3.699,-3.6991]}]]